New Salem, North Dakota
Current Conditions -  °F | °C
As of 2:35 AM on Thursday 23 Oct 2014 (Local Time) from KD57 Reporting Station
Clear Clear  
Wind Chill: 37°   Ceiling: Unl
Heat Index: 37°   Visibility: 10mi
Dew Point: 30°   Wind: 0mph
Humidity: 75%   Direction: NA
Pressure: 29.91"   Gusts: NA
Location:  46.85°N, 101.41°W
Report Text: KD57 230835Z AUTO 00000KT 10SM CLR 03/M01 A2991 RMK AO2 TSNO
Loading
Personal Weather Stations






























Interactive Weather Map
Tropical Storm Tracking
New forecast layout! Learn more

10-Day Weather Forecast

Advertisements
Track Severe Weather on mobile